Regional Weather Roundup
Issued by NWS Charleston, WV

Home | Current Version | Previous Version | Graphics & Text | Print | Product List | Glossary On
Versions: 1 2 3 4 5 6 7 8 9 10 11 12 13 14 15 16 17 18 19 20 21 22 23 24 25 26 27 28 29 30 31 32 33 34 35 36 37 38 39 40 41 42 43 44 45 46 47 48 49 50
000
ASUS41 KRLX 091210
RWRRLX
CRWRWRRLX ALL
West Virginia Regional Weather Roundup
National Weather Service Charleston WV
Issued by National Weather Service Pittsburgh PA
700 AM EST FRI DEC 09 2016

Note: "fair" indicates few or no clouds below 12,000 feet with no
significant weather and/or obstructions to visibility.

WVZ003-091300-
Northern Panhandle of West Virginia

CITY           SKY/WX    TMP DP  RH WIND       PRES   REMARKS
WHEELING       CLOUDY    21  15  78 W14       30.33S WCI   8
$$

WVZ009-091300-
Northwest West Virginia

CITY           SKY/WX    TMP DP  RH WIND       PRES   REMARKS
PARKERSBURG    CLOUDY    23  14  68 W8        30.45R WCI  14
$$

WVZ006-091300-
Western West Virginia

CITY           SKY/WX    TMP DP  RH WIND       PRES   REMARKS
HUNTINGTON     CLOUDY    24  16  71 VRB6      30.48R WCI  17
$$

WVZ015-091300-
West Central West Virginia

CITY           SKY/WX    TMP DP  RH WIND       PRES   REMARKS
CHARLESTON     CLOUDY    24  14  65 W9        30.45R WCI  14
$$

WVZ031-091300-
North Central West Virginia

CITY           SKY/WX    TMP DP  RH WIND       PRES   REMARKS
CLARKSBURG     LGT SNOW  22  17  81 W9        30.36R WCI  12
MORGANTOWN     FLURRIES  23  15  71 W7        30.35R WCI  15
$$

WVZ035-042-091300-
South Central West Virginia

CITY           SKY/WX    TMP DP  RH WIND       PRES   REMARKS
BECKLEY        CLOUDY    17   8  67 NW14G22   30.32R WCI   3
BLUEFIELD      FLURRIES  16  10  77 NW10G21   30.29R WCI   4
$$

WVZ045-091300-
Greenbrier Valley of West Virginia

CITY           SKY/WX    TMP DP  RH WIND       PRES   REMARKS
LEWISBURG      CLOUDY    18  10  71 W7        30.30R WCI   9
$$

WVZ047-091300-
Northern Mountains of West Virginia

CITY           SKY/WX    TMP DP  RH WIND       PRES   REMARKS
ELKINS         LGT SNOW  20  12  71 W8G17     30.31R WCI  10
$$

WVZ052-091300-
Eastern Panhandle of West Virginia

CITY           SKY/WX    TMP DP  RH WIND       PRES   REMARKS
MARTINSBURG    PTCLDY    27  13  55 NW16      30.28R WCI  15
PETERSBURG     PTCLDY    28  14  54 W8        30.32R WCI  20
$$



USA.gov is the U.S. government's official web portal to all federal, state and local government web resources and services.